Regional Weather Roundup
Issued by NWS Cleveland, OH

Home | Current Version | Previous Version | Graphics & Text | Print | Product List | Glossary On
Versions: 1 2 3 4 5 6 7 8 9 10 11 12 13 14 15 16 17 18 19 20 21 22 23 24 25 26 27 28 29 30 31 32 33 34 35 36 37 38 39 40 41 42 43 44 45 46 47 48 49 50
000
ASUS41 KCLE 191110
RWRCLE
OHIO REGIONAL WEATHER ROUNDUP
NATIONAL WEATHER SERVICE WILMINGTON, OH
700 AM EDT SUN APR 19 2015

NOTE: "FAIR" INDICATES FEW OR NO CLOUDS BELOW 12,000 FEET WITH NO
SIGNIFICANT WEATHER AND/OR OBSTRUCTIONS TO VISIBILITY.

OHZ001>008-015>018-024>027-034-035-043-044-191200-
   NORTHWEST OHIO

CITY           SKY/WX    TMP DP  RH WIND       PRES   REMARKS
DEFIANCE       PTCLDY    49  32  52 E10G18    29.98F
FINDLAY        MOCLDY    49  33  54 E14       29.96S
TOLEDO EXPRESS PTCLDY    47  32  56 E15       30.00F
TOLEDO EXEC    PTCLDY    46  34  62 NE13G21   30.02F
LIMA           CLOUDY    50  37  61 E13       29.93F
$$

OHZ009>014-019>023-028>033-038-089-191200-
   NORTHEAST OHIO

CITY           SKY/WX    TMP DP  RH WIND       PRES   REMARKS
CLE-HOPKINS    MOCLDY    50  27  40 E10       30.04F
CLE-LAKEFRONT  MOCLDY    49  37  63 NE8       30.02F
CUY CO. ARPT   MOCLDY    52  28  40 SE12      30.05
LORAIN-ELYRIA  MOCLDY    45  34  65 NE7       30.02S
ASHTABULA      MOCLDY    42  25  50 E7        30.09S
AKRON-CANTON   MOCLDY    51  29  42 E12       30.01F
WOOSTER        MOCLDY    49  33  54 E9        30.01S
MANSFIELD      MOCLDY    52  31  44 E10       29.98F
YOUNGSTOWN     MOCLDY    48  28  46 E10       30.05S
$$

OHZ042-051>053-060>062-070>072-077>081-191200-
  SOUTHWEST OHIO

CITY           SKY/WX    TMP DP  RH WIND       PRES   REMARKS
CINC-COVINGTON CLOUDY    63  45  51 E9        29.83F
CINC-LUNKEN    CLOUDY    60  48  64 NE7       29.84F
HAMILTON       CLOUDY    59  47  64 E6        29.86F
DAYTON         CLOUDY    59  41  51 E12       29.89F
WRIGHT-PAT AFB CLOUDY    58  40  51 E7        29.88F
DAYTON GENERAL CLOUDY    59  43  55 E14G21    29.85F
WILMINGTON     CLOUDY    55  44  66 NE10      29.87F
$$

OHZ036-037-039>041-045>050-054>059-063>069-073>076-082>088-191200-
  CENTRAL AND SOUTHEAST OHIO

CITY           SKY/WX    TMP DP  RH WIND       PRES   REMARKS
COLUMBUS       CLOUDY    59  39  47 E9        29.92S
OSU AIRPORT    MOCLDY    55  38  52 E9        29.92F
BOLTON FIELD   MOCLDY    58  41  53 E7        29.92S
RICKENBACK AFB MOCLDY    56  41  56 NE7       29.91S
NEWARK         MOCLDY    56  39  53 NE7       29.94S
MARION         MOCLDY    49  37  63 E9        29.95F
LANCASTER      PTCLDY    57  42  57 E7        29.93S
ZANESVILLE     MOCLDY    57  38  48 E8        29.95S
NEW PHILLY     MOCLDY    56  35  45 E7        30.00S
$$



USA.gov is the U.S. government's official web portal to all federal, state and local government web resources and services.